RH
28 25 25 29 32 33 33 30 31 34 36 35 35 35 38 41 41 41 42 41 37 34 34 34 33 32 32 32 32 33 33 32 34 37 37 35 34 36 38 39 40 41
34 29 24 24 27 30 32 31 31 33 35 36 36 36 38 40 41 41 41 42 41 36 32 30 30 31 31 31 31 31 31 30 31 32 35 38 37 37 37 39 41 43
38 38 30 27 27 27 28 30 30 32 34 35 36 37 38 39 39 40 38 38 40 39 36 31 29 30 30 30 31 31 32 33 32 33 36 40 40 40 40 42 44 45
36 41 38 34 32 29 27 28 29 31 32 33 34 35 36 38 39 39 37 36 37 38 38 36 34 32 31 31 32 33 34 34 34 34 35 37 39 39 40 41 42 43
35 40 42 40 38 36 33 30 29 31 31 31 32 33 34 35 37 38 39 37 35 34 36 38 38 37 34 32 31 33 34 33 34 35 35 37 37 37 38 39 40 41
39 39 42 42 41 41 40 37 34 33 33 31 32 32 32 33 34 35 36 39 38 35 33 36 38 38 37 35 33 33 34 35 38 40 40 41 39 37 38 40 42 44
43 43 42 42 43 43 43 42 40 39 38 36 34 34 33 33 33 33 33 36 38 37 34 34 36 36 37 37 36 35 35 35 38 40 41 42 40 38 38 40 42 45
49 49 45 42 43 43 43 43 43 43 43 43 41 39 38 36 36 36 35 35 35 36 36 35 34 35 37 37 37 37 37 36 37 39 39 38 38 37 38 39 39 39
57 57 54 49 45 43 43 42 42 43 43 43 44 44 42 41 41 41 41 40 38 36 36 36 34 34 36 37 37 37 38 39 40 41 41 40 39 39 40 41 41 39
61 63 63 59 52 46 47 46 42 42 43 43 42 43 43 43 43 43 43 44 44 41 38 37 36 35 35 37 38 37 38 39 39 39 40 41 42 44 46 48 48 47
63 68 68 65 59 54 54 53 48 43 43 44 44 43 43 43 43 44 44 44 44 44 42 40 38 38 37 38 40 40 40 41 40 38 38 40 44 46 49 50 49 50
70 77 76 70 66 64 61 61 60 52 45 43 44 45 46 47 46 44 46 47 46 45 44 44 42 41 40 40 41 41 42 43 44 43 42 45 47 49 50 51 50 50
73 77 75 70 71 73 70 69 73 71 60 49 45 44 45 47 46 45 46 47 48 49 49 47 46 45 45 44 43 43 43 43 45 47 48 50 51 51 52 53 53 53
71 72 69 65 70 74 73 73 77 78 74 66 55 48 47 47 45 48 50 48 47 50 52 53 53 52 52 51 49 48 46 45 45 47 49 51 52 52 54 56 56 57
66 67 62 59 62 65 68 74 75 72 75 78 71 61 58 55 50 51 56 54 48 47 50 56 59 57 57 58 56 54 54 55 55 52 49 50 52 54 56 56 57 58
64 65 63 60 61 61 65 71 71 69 72 79 81 74 67 60 53 50 53 52 49 47 49 53 55 56 61 65 62 59 60 63 64 61 56 53 56 59 58 54 55 60
65 65 65 64 64 64 65 65 67 70 70 69 71 73 72 66 56 49 48 50 50 51 52 52 54 59 66 70 66 61 58 59 64 66 61 55 57 62 60 54 52 57
70 67 66 66 66 67 66 64 65 69 71 66 62 64 70 71 62 53 50 51 53 56 58 57 57 60 64 66 69 66 59 56 60 63 58 54 56 60 61 58 55 56
78 76 73 70 68 68 68 67 66 68 70 70 66 64 65 63 60 59 56 52 52 57 60 61 61 62 61 59 63 67 64 60 60 58 57 59 59 57 56 57 59 61
83 82 80 76 71 69 69 69 69 70 71 71 70 69 69 67 66 68 67 62 60 61 63 65 66 67 65 61 59 61 62 63 62 57 55 59 61 60 58 55 55 60
83 82 83 82 79 74 70 69 71 72 72 74 74 74 76 75 73 74 73 71 72 71 71 72 70 68 67 64 60 60 62 66 66 59 52 52 57 63 65 62 60 62
83 83 84 84 83 80 76 73 72 72 73 75 76 76 77 75 73 73 74 74 76 76 75 74 70 68 68 66 64 64 66 69 70 66 60 56 55 56 57 59 64 68
82 82 83 83 82 83 82 78 74 74 74 75 77 78 78 76 75 74 74 74 76 78 77 75 73 73 73 72 71 71 70 72 73 72 69 65 62 55 50 49 55 63
80 80 80 80 79 79 79 76 73 72 74 76 78 80 78 76 76 77 76 77 79 80 79 76 75 76 77 78 79 78 76 75 75 74 73 72 70 65 58 52 50 55
75 76 76 76 74 72 70 71 70 69 69 70 73 76 76 75 76 76 76 77 80 82 82 79 78 78 78 80 82 82 82 81 79 78 78 78 77 74 71 67 61 57
72 73 72 71 68 65 64 64 64 64 65 65 66 68 70 71 73 76 81 84 85 86 87 86 86 83 82 83 84 84 84 85 84 83 83 83 83 81 79 77 77 71